カタログに戻る

STARLINK-11460

運用中通信VLEO
NORAD 62069·PAYLOAD·🇺🇸 United States

打ち上げ Nov 24, 2024 から Vandenberg Space Force Base

Loading…

次のパス (今後24時間)

TLE

最新Source: CelesTrak SupGP

元期: Sep 14, 2026, 21:10 UTC

1 62069C 24217N   26257.88243056  .00044358  00000+0  36530-3 0  2577
2 62069  53.1576 218.9002 0001313 101.5273 282.5116 15.69692589    17

AllMySatでSTARLINK-11460をリアルタイム追跡

Download on the App Store